Weather History for MMHO - October, 2013

Change the Weather History Date:

Monday, October 14, 2013

  Actual Average Record
Temperature  
Mean Temperature 78 °F -  
Max Temperature 84 °F 86 °F 104 °F (2011)
Min Temperature 72 °F 58 °F 46 °F (2008)
Cooling Degree Days 13    
Growing Degree Days 28 (Base 50)    
Moisture  
Dew Point 62 °F    
Average Humidity 54    
Maximum Humidity 78    
Minimum Humidity 37    
Precipitation  
Precipitation 0.00 in - - ()
Sea Level Pressure  
Sea Level Pressure 29.93 in    
Wind  
Wind Speed 2 mph ()    
Max Wind Speed 6 mph    
Max Gust Speed -    
Visibility 9.2 miles    
Events      
Averages and records for this station are not official NWS values.
T = Trace of Precipitation, MM = Missing Value Source: Averaged Metar Reports

Daily Weather History Graph

Daily Weather History Graph

Search for Another Location

Airport or City:

Trip Planner

Search our weather history database for the weather conditions in past years. The results will help you decide how hot, cold, wet, or windy it might be!

Date:

Astronomy

Oct. 14, 2013 Rise Set
Actual Time 7:24 AM MDT 6:54 PM MDT
Civil Twilight 7:01 AM MDT 7:18 PM MDT
Nautical Twilight 6:33 AM MDT 7:46 PM MDT
Astronomical Twilight 6:06 AM MDT 8:13 PM MDT
Moon 4:09 PM MDT (10/14) 3:05 AM MDT (10/14)
Length of Visible Light 12h 17m
Length of Day
11h 29m
Waxing Gibbous, 80% of the Moon is Illuminated
Oct 14
Waxing Gibbous
Oct 18
Full
Oct 26
Last Quarter
Nov 3
New
Nov 9
First Quarter

Hourly Weather History & Observations

Time (MDT) Temp. Heat Index Dew Point Humidity Pressure Visibility Wind Dir Wind Speed Gust Speed Precip Events Conditions
12:43 AM 75.2 °F - 62.6 °F 65% 29.97 in 10.0 mi Calm Calm - N/A   Overcast
1:42 AM 75.2 °F - 62.6 °F 65% 29.96 in 10.0 mi Calm Calm - N/A   Overcast
2:41 AM 75.2 °F - 62.6 °F 65% 29.94 in 10.0 mi Calm Calm - N/A   Overcast
3:41 AM 75.2 °F - 64.4 °F 69% 29.94 in 10.0 mi North 4.6 mph - N/A   Overcast
4:42 AM 75.2 °F - 62.6 °F 65% 29.94 in 10.0 mi Calm Calm - N/A   Overcast
5:44 AM 75.2 °F - 60.8 °F 61% 29.93 in 10.0 mi Calm Calm - N/A   Overcast
6:43 AM 75.2 °F - 60.8 °F 61% 29.96 in 10.0 mi Calm Calm - N/A   Overcast
7:40 AM 77.0 °F - 60.8 °F 57% 29.96 in 10.0 mi ESE 4.6 mph - N/A   Overcast
8:40 AM 73 °F - 63 °F 63% 29.96 in 7 mi NNE 2.2 mph - -   Overcast
8:40 AM 78.8 °F - 60.8 °F 54% 29.98 in 10.0 mi East 4.6 mph - N/A   Overcast
9:40 AM 80.6 °F 81.1 °F 59.0 °F 48% 30.00 in 10.0 mi East 4.6 mph - N/A   Overcast
10:45 AM 82.4 °F 82.5 °F 59.0 °F 45% 30.00 in 10.0 mi East 4.6 mph - N/A   Overcast
11:44 AM 84.2 °F 83.8 °F 59.0 °F 42% 29.95 in 10.0 mi South 5.8 mph - N/A   Overcast
11:45 AM 81 °F - 62 °F 42% 29.97 in 7 mi NNE 2.2 mph - -   Overcast
12:53 PM 84.2 °F 84.4 °F 60.8 °F 45% 30.00 in 10.0 mi SW 4.6 mph - N/A   Overcast
1:45 PM 84.2 °F 85.0 °F 62.6 °F 48% 29.96 in 10.0 mi WNW 4.6 mph - N/A   Overcast
2:35 PM 82 °F - 60 °F 37% 29.90 in 7 mi SE 2.2 mph - -   Overcast
3:49 PM 84.2 °F 83.8 °F 59.0 °F 42% 29.94 in 10.0 mi Calm Calm - N/A   Overcast
4:45 PM 84.2 °F 83.8 °F 59.0 °F 42% 29.92 in 10.0 mi West 5.8 mph - N/A   Overcast
5:32 PM 82 °F - 62 °F 40% 29.86 in 7 mi NE 2.2 mph - -   Overcast
5:45 PM 84.2 °F 83.8 °F 59.0 °F 42% 29.87 in 10.0 mi Calm Calm - N/A   Overcast
6:48 PM 82.4 °F 82.5 °F 59.0 °F 45% 29.92 in 10.0 mi Calm Calm - N/A   Overcast
7:51 PM 80.6 °F 81.1 °F 59.0 °F 48% 29.92 in 10.0 mi Calm Calm - N/A   Overcast
8:40 PM 79 °F - 62 °F 46% 29.88 in 5 mi SSE 2.2 mph - -   Mostly Cloudy
8:42 PM 80.6 °F 81.1 °F 59.0 °F 48% 29.88 in 10.0 mi ESE 5.8 mph - N/A   Overcast
9:41 PM 78.8 °F - 66.2 °F 65% 29.93 in 10.0 mi South 5.8 mph - N/A   Overcast
10:41 PM 77.0 °F - 68.0 °F 74% 29.92 in 10.0 mi Calm Calm - N/A   Overcast
11:40 PM 76 °F - 65 °F 60% 29.86 in 5 mi NW 4.5 mph - -   Mostly Cloudy
11:46 PM 75.2 °F - 68.0 °F 78% 29.86 in 10.0 mi Calm Calm - N/A   Overcast